Home   Weather   Mamoutzou   Past weeks
Flag for Mayotte

Past Weather in Mamoutzou, Mayotte — Yesterday and Last 2 Weeks

Now
75 °F

Passing clouds.


Feels Like: 77 °F
Forecast: 78 / 73 °F
Wind: 22 mph from Southwest

Location: Dzaoudzi / Pamanzi Mayotte

Current Time: Jul 23, 2019 at 2:35:06 am

Latest Report: Jul 23, 2019 at 2:00 am


Visibility: N/A

Pressure: 29.95 "Hg

Humidity: 74%

Dew Point: 66 °F

Location of MamoutzouLocation

Past Weather in Mamoutzou — Graph

°F

Mamoutzou Temperature Yesterday

Maximum temperature yesterday: 81 °F (at 11:00 am)
Minimum temperature yesterday: 75 °F (at 5:30 pm)
Average temperature yesterday: 78 °F

High & Low Weather Summary for the Past Weeks

 TemperatureHumidityPressure
High86 °F (Jul 13, 11:30 am)94% (Jul 14, 12:30 am)30.15 "Hg (Jul 14, 12:30 am)
Low68 °F (Jul 20, 1:30 am)48% (Jul 22, 11:30 am)29.92 "Hg (Jul 10, 2:00 pm)
Average79 °F75%30.02 "Hg
* Reported Jul 8 1:00 am — Jul 23 1:00 am, Mamoutzou. Weather by CustomWeather, © 2019

Note: Actual official high and low records may vary slightly from our data, if they occured in-between our weather recording intervals... More about our weather records

Advertising

Mamoutzou Weather History for the Previous 24 Hours

Scroll right to see more
 ConditionsComfort  
Time TempWeatherWind HumidityBarometerVisibility
1:00 am
Tue, Jul 23
75 °FClear.20 mph69%29.95 "Hg10 mi
12:30 am75 °FClear.21 mph69%29.98 "Hg10 mi
12:00 am75 °FClear.22 mph69%29.98 "Hg10 mi
11:30 pm
Mon, Jul 22
75 °FClear.20 mph69%29.98 "Hg10 mi
11:00 pm75 °FClear.20 mph65%29.98 "Hg10 mi
10:30 pm75 °FClear.17 mph65%30.01 "Hg10 mi
10:00 pm75 °FClear.20 mph65%30.01 "Hg10 mi
9:30 pm75 °FClear.18 mph65%30.01 "Hg10 mi
9:00 pm75 °FClear.20 mph65%30.01 "Hg10 mi
8:30 pm75 °FClear.20 mph65%30.01 "Hg10 mi
8:00 pm75 °FClear.17 mph65%30.01 "Hg10 mi
7:30 pm75 °FClear.18 mph61%29.98 "Hg10 mi
7:00 pm75 °FClear.20 mph61%29.98 "Hg10 mi
6:30 pm75 °FClear.21 mph57%29.98 "Hg10 mi
6:00 pm75 °FClear.25 mph61%29.98 "Hg10 mi
5:30 pm75 °FSunny.24 mph57%29.95 "Hg10 mi
5:00 pm77 °FSunny.26 mph54%29.95 "Hg10 mi
4:30 pm77 °FSunny.25 mph51%29.95 "Hg10 mi
4:00 pm79 °FSunny.26 mph51%29.95 "Hg10 mi
3:30 pm79 °FSunny.28 mph54%29.95 "Hg10 mi
3:00 pm79 °FSunny.29 mph51%29.95 "Hg10 mi
2:30 pm79 °FSunny.29 mph54%29.95 "Hg10 mi
2:00 pm81 °FSunny.29 mph48%29.95 "Hg10 mi
1:30 pm81 °FSunny.29 mph48%29.95 "Hg10 mi
1:00 pm81 °FSunny.29 mph48%29.95 "Hg10 mi
12:30 pm81 °FSunny.29 mph48%29.98 "Hg10 mi
12:00 pm81 °FSunny.32 mph51%29.98 "Hg10 mi
11:30 am81 °FSunny.31 mph48%30.01 "Hg10 mi
11:00 am81 °FSunny.30 mph54%30.01 "Hg10 mi
10:30 am79 °FSunny.31 mph61%30.01 "Hg10 mi
10:00 am79 °FPassing clouds.30 mph58%30.01 "HgN/A
9:30 am79 °FPassing clouds.29 mph61%30.01 "HgN/A
9:00 am77 °FPartly sunny.29 mph69%30.01 "HgN/A
8:30 am79 °FScattered clouds.29 mph65%30.01 "HgN/A
8:00 am77 °FPassing clouds.31 mph69%30.01 "HgN/A
7:30 am77 °FSunny.28 mph69%29.98 "Hg10 mi
7:00 am77 °FSunny.28 mph65%29.98 "Hg10 mi
6:30 am77 °FSunny.31 mph61%29.98 "Hg10 mi
6:00 am77 °FClear.32 mph69%29.95 "Hg10 mi
5:30 am77 °FClear.32 mph65%29.95 "Hg10 mi
5:00 am77 °FClear.32 mph65%29.95 "Hg10 mi
4:00 am77 °FClear.32 mph69%29.95 "Hg10 mi
3:30 am79 °FClear.31 mph61%29.95 "Hg10 mi
3:00 am77 °FPassing clouds.30 mph69%29.95 "HgN/A
2:30 am77 °FClear.29 mph69%29.95 "Hg10 mi
2:00 am79 °FClear.31 mph65%29.95 "Hg10 mi
Weather by CustomWeather, © 2019

See weather overview